Time,TemperatureF,DewpointF,PressureIn,WindDirection,WindDirectionDegrees,WindSpeedMPH,WindSpeedGustMPH,Humidity,HourlyPrecipIn,Conditions,Clouds,dailyrainin,SoftwareType,DateUTC
2013-05-20 00:03:00,58.0,57.0,30.16,East,81,0.0,2.0,97,0.00,,,0.55,,2013-05-20 04:03:00,
2013-05-20 00:13:00,58.0,57.0,30.16,East,81,0.0,2.0,97,0.00,,,0.55,,2013-05-20 04:13:00,
2013-05-20 00:23:00,58.0,57.0,30.16,SSE,165,0.0,1.0,97,0.00,,,0.55,,2013-05-20 04:23:00,
2013-05-20 00:33:00,58.0,57.0,30.15,SSE,160,0.0,2.0,97,0.00,,,0.55,,2013-05-20 04:33:00,
2013-05-20 00:42:00,58.0,57.0,30.15,SSE,160,0.0,2.0,97,0.00,,,0.55,,2013-05-20 04:42:00,
2013-05-20 00:53:00,58.0,57.0,30.15,SSE,165,0.0,2.0,97,0.00,,,0.55,,2013-05-20 04:53:00,
2013-05-20 01:02:00,58.0,57.0,30.14,SSE,167,0.0,3.0,97,0.00,,,0.55,,2013-05-20 05:02:00,
2013-05-20 01:12:00,58.0,57.0,30.14,SSE,167,0.0,3.0,97,0.00,,,0.55,,2013-05-20 05:12:00,
2013-05-20 01:22:00,58.0,57.0,30.13,SSE,156,0.0,2.0,97,0.00,,,0.55,,2013-05-20 05:22:00,
2013-05-20 01:32:00,58.0,57.0,30.13,SSE,164,0.0,1.0,97,0.00,,,0.55,,2013-05-20 05:32:00,
2013-05-20 01:42:00,58.0,57.0,30.13,SSE,164,0.0,1.0,97,0.00,,,0.55,,2013-05-20 05:42:00,
2013-05-20 01:52:00,58.0,57.0,30.12,SSE,157,0.0,1.0,97,0.00,,,0.55,,2013-05-20 05:52:00,
2013-05-20 02:01:00,58.0,57.0,30.11,SSE,164,0.0,1.0,97,0.00,,,0.55,,2013-05-20 06:01:00,
2013-05-20 02:11:00,58.0,57.0,30.11,SSE,164,0.0,1.0,97,0.00,,,0.55,,2013-05-20 06:11:00,
2013-05-20 02:21:00,58.0,57.0,30.11,SSE,163,0.0,1.0,97,0.00,,,0.55,,2013-05-20 06:21:00,
2013-05-20 02:32:00,58.0,57.0,30.10,SSE,163,0.0,1.0,97,0.00,,,0.55,,2013-05-20 06:32:00,
2013-05-20 02:42:00,58.0,57.0,30.10,SSE,163,0.0,1.0,97,0.00,,,0.55,,2013-05-20 06:42:00,
2013-05-20 02:52:00,58.0,57.0,30.09,SSE,163,0.0,1.0,97,0.00,,,0.55,,2013-05-20 06:52:00,
2013-05-20 03:02:00,58.0,57.0,30.09,SSW,198,0.0,1.0,97,0.00,,,0.55,,2013-05-20 07:02:00,
2013-05-20 03:12:00,58.0,57.0,30.09,SSW,198,0.0,1.0,97,0.00,,,0.55,,2013-05-20 07:12:00,
2013-05-20 03:21:00,58.0,57.0,30.08,SSW,198,0.0,1.0,97,0.00,,,0.55,,2013-05-20 07:21:00,
2013-05-20 03:32:00,58.0,57.0,30.08,WSW,237,0.0,1.0,97,0.00,,,0.55,,2013-05-20 07:32:00,
2013-05-20 03:42:00,58.0,57.0,30.08,WSW,237,0.0,1.0,97,0.00,,,0.55,,2013-05-20 07:42:00,
2013-05-20 03:52:00,58.0,57.0,30.08,NNW,346,0.0,1.0,97,0.00,,,0.55,,2013-05-20 07:52:00,
2013-05-20 04:01:00,58.0,57.0,30.09,NNW,346,0.0,0.0,97,0.00,,,0.55,,2013-05-20 08:01:00,
2013-05-20 04:11:00,58.0,57.0,30.09,NNW,346,0.0,0.0,97,0.00,,,0.55,,2013-05-20 08:11:00,
2013-05-20 04:21:00,58.0,57.0,30.08,NNW,346,0.0,0.0,97,0.00,,,0.50,,2013-05-20 08:21:00,
2013-05-20 04:32:00,58.0,57.0,30.09,NNE,19,0.0,1.0,97,0.00,,,0.50,,2013-05-20 08:32:00,
2013-05-20 04:42:00,58.0,57.0,30.09,NNE,19,0.0,1.0,97,0.00,,,0.50,,2013-05-20 08:42:00,
2013-05-20 04:52:00,58.0,57.0,30.08,NNE,19,0.0,0.0,97,0.00,,,0.50,,2013-05-20 08:52:00,
2013-05-20 05:02:00,58.0,57.0,30.08,SSE,158,1.0,2.0,97,0.00,,,0.50,,2013-05-20 09:02:00,
2013-05-20 05:12:00,58.0,57.0,30.08,SSE,158,1.0,2.0,97,0.00,,,0.50,,2013-05-20 09:12:00,
2013-05-20 05:22:00,58.0,57.0,30.08,SSE,167,0.0,2.0,97,0.00,,,0.50,,2013-05-20 09:22:00,
2013-05-20 05:33:00,58.0,57.0,30.07,SSE,153,0.0,2.0,97,0.00,,,0.50,,2013-05-20 09:33:00,
2013-05-20 05:43:00,58.0,57.0,30.07,SSE,153,0.0,2.0,97,0.00,,,0.50,,2013-05-20 09:43:00,
2013-05-20 05:53:00,58.0,57.0,30.07,SSE,158,0.0,1.0,97,0.00,,,0.50,,2013-05-20 09:53:00,
2013-05-20 06:03:00,58.0,57.0,30.07,SSE,155,0.0,2.0,97,0.00,,,0.50,,2013-05-20 10:03:00,
2013-05-20 06:12:00,58.0,57.0,30.07,SSE,155,0.0,2.0,97,0.00,,,0.50,,2013-05-20 10:12:00,
2013-05-20 06:22:00,58.0,57.0,30.07,SE,146,0.0,1.0,97,0.00,,,0.46,,2013-05-20 10:22:00,
2013-05-20 06:33:00,59.0,58.0,30.08,SE,146,0.0,0.0,97,0.00,,,0.46,,2013-05-20 10:33:00,
2013-05-20 06:42:00,59.0,58.0,30.08,SE,146,0.0,0.0,97,0.00,,,0.46,,2013-05-20 10:42:00,
2013-05-20 06:52:00,59.0,58.0,30.08,SE,146,0.0,0.0,97,0.00,,,0.46,,2013-05-20 10:52:00,
2013-05-20 07:02:00,59.0,58.0,30.08,SE,146,0.0,0.0,97,0.00,,,0.46,,2013-05-20 11:02:00,
2013-05-20 07:12:00,59.0,58.0,30.08,SE,146,0.0,0.0,97,0.00,,,0.46,,2013-05-20 11:12:00,
2013-05-20 07:22:00,59.0,58.0,30.08,SE,146,0.0,0.0,97,0.00,,,0.46,,2013-05-20 11:22:00,
2013-05-20 07:32:00,59.0,58.0,30.08,SSE,152,0.0,1.0,97,0.00,,,0.45,,2013-05-20 11:32:00,
2013-05-20 07:42:00,59.0,58.0,30.08,SSE,152,0.0,1.0,97,0.00,,,0.45,,2013-05-20 11:42:00,
2013-05-20 07:52:00,59.0,58.0,30.08,SSE,153,0.0,1.0,97,0.00,,,0.45,,2013-05-20 11:52:00,
2013-05-20 08:01:00,60.0,59.0,30.09,SSE,152,0.0,0.0,97,0.00,,,0.45,,2013-05-20 12:01:00,
2013-05-20 08:12:00,60.0,59.0,30.09,SSE,152,0.0,0.0,97,0.00,,,0.45,,2013-05-20 12:12:00,
2013-05-20 08:21:00,60.0,59.0,30.09,SSE,159,0.0,1.0,97,0.00,,,0.44,,2013-05-20 12:21:00,
2013-05-20 08:32:00,61.0,60.0,30.09,SSE,159,0.0,1.0,97,0.00,,,0.44,,2013-05-20 12:32:00,
2013-05-20 08:42:00,61.0,60.0,30.09,SSE,159,0.0,1.0,97,0.00,,,0.44,,2013-05-20 12:42:00,
2013-05-20 08:52:00,61.0,60.0,30.10,SSE,158,0.0,1.0,97,0.00,,,0.44,,2013-05-20 12:52:00,
2013-05-20 09:01:00,62.0,61.0,30.10,SSE,148,0.0,1.0,97,0.00,,,0.44,,2013-05-20 13:01:00,
2013-05-20 09:11:00,62.0,61.0,30.10,SSE,148,0.0,1.0,97,0.00,,,0.44,,2013-05-20 13:11:00,
2013-05-20 09:22:00,62.0,61.0,30.09,NW,318,0.0,2.0,97,0.00,,,0.43,,2013-05-20 13:22:00,
2013-05-20 09:32:00,63.0,62.0,30.09,South,187,0.0,2.0,96,0.00,,,0.43,,2013-05-20 13:32:00,
2013-05-20 09:41:00,63.0,62.0,30.09,South,187,0.0,2.0,96,0.00,,,0.43,,2013-05-20 13:41:00,
2013-05-20 09:52:00,65.0,64.0,30.08,SSW,198,0.0,2.0,95,0.00,,,0.43,,2013-05-20 13:52:00,
2013-05-20 10:01:00,66.0,64.0,30.09,SW,224,0.0,2.0,93,0.00,,,0.43,,2013-05-20 14:01:00,
2013-05-20 10:11:00,66.0,64.0,30.09,SW,224,0.0,2.0,93,0.00,,,0.43,,2013-05-20 14:11:00,
2013-05-20 10:22:00,68.0,64.0,30.08,SSE,161,0.0,3.0,87,0.00,,,0.42,,2013-05-20 14:22:00,
2013-05-20 10:32:00,69.0,64.0,30.09,East,84,0.0,3.0,83,0.00,,,0.42,,2013-05-20 14:32:00,
2013-05-20 10:42:00,69.0,64.0,30.09,East,84,0.0,3.0,83,0.00,,,0.42,,2013-05-20 14:42:00,
2013-05-20 10:52:00,69.0,64.0,30.09,East,84,0.0,3.0,83,0.00,,,0.42,,2013-05-20 14:52:00,
2013-05-20 11:01:00,69.0,62.0,30.08,NW,314,4.0,7.0,79,0.00,,,0.42,,2013-05-20 15:01:00,
2013-05-20 11:12:00,69.0,62.0,30.08,NW,314,4.0,7.0,79,0.00,,,0.42,,2013-05-20 15:12:00,
2013-05-20 11:22:00,71.0,65.0,30.08,SSE,160,0.0,4.0,80,0.00,,,0.35,,2013-05-20 15:22:00,
2013-05-20 11:33:00,73.0,65.0,30.06,NW,309,1.0,7.0,75,0.00,,,0.35,,2013-05-20 15:33:00,
2013-05-20 11:42:00,73.0,65.0,30.06,NW,309,1.0,7.0,75,0.00,,,0.35,,2013-05-20 15:42:00,
2013-05-20 11:53:00,74.0,65.0,30.06,NNW,340,1.0,5.0,74,0.00,,,0.35,,2013-05-20 15:53:00,
2013-05-20 12:03:00,75.0,65.0,30.05,West,272,1.0,4.0,71,0.00,,,0.35,,2013-05-20 16:03:00,
2013-05-20 12:13:00,75.0,65.0,30.05,West,272,1.0,4.0,71,0.00,,,0.35,,2013-05-20 16:13:00,
2013-05-20 12:23:00,76.0,65.0,30.04,NNW,343,1.0,6.0,69,0.00,,,0.28,,2013-05-20 16:23:00,
2013-05-20 12:33:00,76.0,65.0,30.04,SE,143,0.0,5.0,69,0.00,,,0.28,,2013-05-20 16:33:00,
2013-05-20 12:42:00,76.0,65.0,30.04,SE,143,0.0,5.0,69,0.00,,,0.28,,2013-05-20 16:42:00,
2013-05-20 12:52:00,77.0,65.0,30.03,SSE,160,1.0,5.0,67,0.00,,,0.28,,2013-05-20 16:52:00,
2013-05-20 13:02:00,77.0,66.0,30.03,North,6,0.0,6.0,68,0.00,,,0.28,,2013-05-20 17:02:00,
2013-05-20 13:12:00,77.0,66.0,30.03,North,6,0.0,6.0,68,0.00,,,0.28,,2013-05-20 17:12:00,
2013-05-20 13:22:00,78.0,66.0,30.02,SSW,201,1.0,5.0,67,0.00,,,0.24,,2013-05-20 17:22:00,
2013-05-20 13:33:00,78.0,65.0,30.01,South,172,2.0,7.0,65,0.00,,,0.24,,2013-05-20 17:33:00,
2013-05-20 13:45:00,78.0,65.0,30.01,South,172,2.0,7.0,65,0.00,,,0.24,,2013-05-20 17:45:00,
2013-05-20 13:53:00,78.0,65.0,30.01,South,172,2.0,7.0,65,0.00,,,0.24,,2013-05-20 17:53:00,
2013-05-20 14:02:00,78.0,66.0,30.01,SSE,154,1.0,7.0,66,0.00,,,0.24,,2013-05-20 18:02:00,
2013-05-20 14:12:00,78.0,66.0,30.01,SSE,154,1.0,7.0,66,0.00,,,0.24,,2013-05-20 18:12:00,
2013-05-20 14:23:00,79.0,67.0,30.01,SSE,155,0.0,6.0,66,0.00,,,0.24,,2013-05-20 18:23:00,
2013-05-20 14:33:00,79.0,66.0,30.00,SSW,195,2.0,6.0,64,0.00,,,0.19,,2013-05-20 18:33:00,
2013-05-20 14:42:00,79.0,66.0,30.00,SSW,195,2.0,6.0,64,0.00,,,0.19,,2013-05-20 18:42:00,
2013-05-20 14:55:00,80.0,67.0,30.00,SSE,152,1.0,4.0,64,0.00,,,0.19,,2013-05-20 18:55:00,
2013-05-20 15:04:00,79.0,66.0,30.00,South,174,1.0,7.0,64,0.00,,,0.19,,2013-05-20 19:04:00,
2013-05-20 15:11:00,79.0,66.0,30.00,South,174,1.0,7.0,64,0.00,,,0.19,,2013-05-20 19:11:00,
2013-05-20 15:21:00,80.0,66.0,30.00,West,281,1.0,5.0,63,0.00,,,0.19,,2013-05-20 19:21:00,
2013-05-20 15:33:00,80.0,66.0,29.99,WNW,300,1.0,4.0,63,0.00,,,0.15,,2013-05-20 19:33:00,
2013-05-20 15:42:00,80.0,66.0,29.99,WNW,300,1.0,4.0,63,0.00,,,0.15,,2013-05-20 19:42:00,
2013-05-20 15:52:00,80.0,66.0,29.99,WSW,255,0.0,6.0,63,0.00,,,0.15,,2013-05-20 19:52:00,
2013-05-20 16:02:00,80.0,66.0,29.99,SSW,211,2.0,6.0,62,0.00,,,0.15,,2013-05-20 20:02:00,
2013-05-20 16:12:00,80.0,66.0,29.99,SSW,211,2.0,6.0,62,0.00,,,0.15,,2013-05-20 20:12:00,
2013-05-20 16:21:00,79.0,66.0,29.99,SE,142,0.0,4.0,65,0.00,,,0.15,,2013-05-20 20:21:00,
2013-05-20 16:32:00,80.0,66.0,29.98,SSE,167,2.0,8.0,63,0.00,,,0.13,,2013-05-20 20:32:00,
2013-05-20 16:42:00,80.0,66.0,29.98,SSE,167,2.0,8.0,63,0.00,,,0.13,,2013-05-20 20:42:00,
2013-05-20 16:52:00,77.0,65.0,29.97,South,177,5.0,12.0,67,0.00,,,0.13,,2013-05-20 20:52:00,
2013-05-20 17:01:00,77.0,65.0,29.96,SE,143,3.0,8.0,67,0.00,,,0.13,,2013-05-20 21:01:00,
2013-05-20 17:11:00,77.0,65.0,29.96,SE,143,3.0,8.0,67,0.00,,,0.13,,2013-05-20 21:11:00,
2013-05-20 17:22:00,77.0,65.0,29.96,ESE,108,4.0,12.0,67,0.00,,,0.13,,2013-05-20 21:22:00,
2013-05-20 17:33:00,76.0,65.0,29.96,SSE,151,3.0,9.0,69,0.00,,,0.09,,2013-05-20 21:33:00,
2013-05-20 17:43:00,77.0,66.0,29.96,South,176,6.0,10.0,68,0.00,,,0.09,,2013-05-20 21:43:00,
2013-05-20 17:53:00,77.0,66.0,29.96,South,176,6.0,10.0,68,0.00,,,0.09,,2013-05-20 21:53:00,
2013-05-20 18:02:00,77.0,66.0,29.96,SSE,151,3.0,8.0,68,0.00,,,0.09,,2013-05-20 22:02:00,
2013-05-20 18:13:00,77.0,66.0,29.96,SSE,151,3.0,8.0,68,0.00,,,0.09,,2013-05-20 22:13:00,
2013-05-20 18:23:00,77.0,66.0,29.96,SSW,200,2.0,8.0,69,0.00,,,0.09,,2013-05-20 22:23:00,
2013-05-20 18:33:00,77.0,66.0,29.96,South,174,3.0,8.0,69,0.00,,,0.05,,2013-05-20 22:33:00,
2013-05-20 18:42:00,77.0,66.0,29.96,South,174,3.0,8.0,69,0.00,,,0.05,,2013-05-20 22:42:00,
2013-05-20 18:52:00,76.0,65.0,29.96,SSW,200,2.0,6.0,69,0.00,,,0.05,,2013-05-20 22:52:00,
2013-05-20 19:03:00,76.0,65.0,29.96,SSE,156,1.0,8.0,70,0.00,,,0.05,,2013-05-20 23:03:00,
2013-05-20 19:12:00,76.0,65.0,29.96,SSE,156,1.0,8.0,70,0.00,,,0.05,,2013-05-20 23:12:00,
2013-05-20 19:22:00,76.0,65.0,29.96,South,179,1.0,5.0,69,0.00,,,0.05,,2013-05-20 23:22:00,
2013-05-20 19:32:00,75.0,65.0,29.95,SSE,158,2.0,6.0,71,0.00,,,0.02,,2013-05-20 23:32:00,
2013-05-20 19:42:00,75.0,65.0,29.95,SSE,158,2.0,6.0,71,0.00,,,0.02,,2013-05-20 23:42:00,
2013-05-20 19:52:00,74.0,64.0,29.96,SSE,162,3.0,7.0,72,0.00,,,0.02,,2013-05-20 23:52:00,
2013-05-20 20:01:00,74.0,64.0,29.96,South,184,1.0,5.0,72,0.00,,,0.02,,2013-05-21 00:01:00,
2013-05-20 20:11:00,74.0,64.0,29.96,South,184,1.0,5.0,72,0.00,,,0.02,,2013-05-21 00:11:00,
2013-05-20 20:22:00,73.0,64.0,29.96,SE,134,1.0,4.0,73,0.00,,,0.02,,2013-05-21 00:22:00,
2013-05-20 20:32:00,72.0,63.0,29.96,SSE,163,1.0,4.0,74,0.00,,,0.01,,2013-05-21 00:32:00,
2013-05-20 20:42:00,71.0,63.0,29.95,SSE,162,1.0,4.0,76,0.00,,,0.01,,2013-05-21 00:42:00,
2013-05-20 20:52:00,71.0,63.0,29.95,SSE,162,1.0,4.0,76,0.00,,,0.01,,2013-05-21 00:52:00,
2013-05-20 21:01:00,71.0,63.0,29.95,SSE,162,1.0,4.0,76,0.00,,,0.01,,2013-05-21 01:01:00,
2013-05-20 21:12:00,71.0,63.0,29.95,SSE,162,1.0,4.0,76,0.00,,,0.01,,2013-05-21 01:12:00,
2013-05-20 21:22:00,69.0,62.0,29.96,SSW,197,0.0,4.0,78,0.00,,,0.01,,2013-05-21 01:22:00,
2013-05-20 21:32:00,68.0,62.0,29.96,SSE,153,1.0,3.0,80,0.00,,,0.00,,2013-05-21 01:32:00,
2013-05-20 21:42:00,68.0,62.0,29.96,SSE,153,1.0,3.0,80,0.00,,,0.00,,2013-05-21 01:42:00,
2013-05-20 21:52:00,68.0,62.0,29.97,South,169,0.0,3.0,80,0.00,,,0.00,,2013-05-21 01:52:00,
2013-05-20 22:02:00,68.0,62.0,29.97,SE,142,0.0,1.0,81,0.00,,,0.00,,2013-05-21 02:02:00,
2013-05-20 22:11:00,68.0,62.0,29.97,SE,142,0.0,1.0,81,0.00,,,0.00,,2013-05-21 02:11:00,
2013-05-20 22:21:00,68.0,62.0,29.98,SSE,163,0.0,2.0,81,0.00,,,0.00,,2013-05-21 02:21:00,
2013-05-20 22:32:00,68.0,62.0,29.97,SSE,163,0.0,1.0,82,0.00,,,0.00,,2013-05-21 02:32:00,
2013-05-20 22:42:00,68.0,62.0,29.97,SSE,163,0.0,1.0,82,0.00,,,0.00,,2013-05-21 02:42:00,
2013-05-20 22:52:00,69.0,64.0,29.97,SSE,153,0.0,3.0,83,0.00,,,0.00,,2013-05-21 02:52:00,
2013-05-20 23:02:00,69.0,64.0,29.97,SSE,167,1.0,3.0,84,0.00,,,0.00,,2013-05-21 03:02:00,
2013-05-20 23:11:00,69.0,64.0,29.97,SSE,167,1.0,3.0,84,0.00,,,0.00,,2013-05-21 03:11:00,
2013-05-20 23:21:00,69.0,64.0,29.96,SSE,159,0.0,3.0,84,0.00,,,0.00,,2013-05-21 03:21:00,
2013-05-20 23:33:00,69.0,64.0,29.96,SSE,148,0.0,2.0,85,0.00,,,0.00,,2013-05-21 03:33:00,
2013-05-20 23:43:00,69.0,65.0,29.95,SSE,158,0.0,3.0,86,0.00,,,0.00,,2013-05-21 03:43:00,
2013-05-20 23:53:00,69.0,65.0,29.95,SSE,158,0.0,3.0,86,0.00,,,0.00,,2013-05-21 03:53:00,